Lille, France

9:46 AM CEST on March 28, 2017 (GMT +0200)
Lesquin

Weather History for LFQQ - January, 2013

Change the Weather History Date:

Tuesday, January 15, 2013

  Actual Average Record
Temperature  
Mean Temperature 28 °F -  
Max Temperature 32 °F 42 °F 51 °F (2015)
Min Temperature 21 °F 34 °F 21 °F (2013)
Degree Days  
Heating Degree Days 38    
Moisture  
Dew Point 29 °F    
Average Humidity 98    
Maximum Humidity 100    
Minimum Humidity 93    
Precipitation  
Precipitation 0.01 in - - ()
Sea Level Pressure  
Sea Level Pressure 29.68 in    
Wind  
Wind Speed 8 mph ()    
Max Wind Speed 16 mph    
Max Gust Speed -    
Visibility 2.7 miles    
Events Fog , Rain , Snow    
Averages and records for this station are not official NWS values.
T = Trace of Precipitation, MM = Missing Value Source: Averaged Metar Reports

Daily Weather History Graph

Daily Weather History Graph

Search for Another Location

Airport or City:

Trip Planner

Search our weather history database for the weather conditions in past years. The results will help you decide how hot, cold, wet, or windy it might be!

Date:

Astronomy

Jan. 15, 2013 Rise Set
Actual Time 8:42 AM CET 5:12 PM CET
Civil Twilight 8:04 AM CET 5:49 PM CET
Nautical Twilight 7:24 AM CET 6:30 PM CET
Astronomical Twilight 6:44 AM CET 7:09 PM CET
Moon 10:09 AM CET (1/15) 10:20 PM CET (1/15)
Length of Visible Light 9h 44m
Length of Day
8h 29m
Waxing Crescent, 17% of the Moon is Illuminated
Jan 15
Waxing Crescent
Jan 19
First Quarter
Jan 27
Full
Feb 3
Last Quarter
Feb 10
New

Hourly Weather History & Observations

Time (CET) Temp. Windchill Dew Point Humidity Pressure Visibility Wind Dir Wind Speed Gust Speed Precip Events Conditions
12:00 AM 30.2 °F 20.2 °F 30.2 °F 100% 29.59 in 5.0 mi SSW 12.7 mph - N/A   Mostly Cloudy
12:30 AM 32.0 °F 21.2 °F 30.2 °F 93% 29.59 in 5.0 mi SSW 16.1 mph - N/A   Mostly Cloudy
1:00 AM 32 °F - 31 °F 97% 29.61 in 5 mi South 12.7 mph - -   Partly Cloudy
1:00 AM 32.0 °F 22.5 °F 32.0 °F 100% 29.59 in 5.0 mi South 12.7 mph - N/A   Mostly Cloudy
1:30 AM 32.0 °F 23.6 °F 32.0 °F 100% 29.59 in 1.8 mi South 10.4 mph - N/A Rain Rain
2:00 AM 32.0 °F 25.6 °F 32.0 °F 100% 29.59 in 0.4 mi South 6.9 mph - N/A Fog , Snow Snow
2:30 AM 32.0 °F 26.4 °F 32.0 °F 100% 29.56 in - South 5.8 mph - N/A Snow Light Snow
3:00 AM 32.0 °F 24.2 °F 32.0 °F 100% 29.56 in - South 9.2 mph - N/A Snow Light Snow
3:30 AM 32.0 °F 25.6 °F 32.0 °F 100% 29.56 in 2.2 mi South 6.9 mph - N/A   Overcast
4:00 AM 32.0 °F 26.4 °F 30.2 °F 93% 29.56 in 2.5 mi South 5.8 mph - N/A   Mostly Cloudy
4:30 AM 30.2 °F 24.3 °F 30.2 °F 100% 29.56 in 1.9 mi SSE 5.8 mph - N/A   Mostly Cloudy
5:00 AM 30.2 °F 25.4 °F 30.2 °F 100% 29.53 in 1.9 mi South 4.6 mph - N/A   Overcast
5:30 AM 30.2 °F 26.7 °F 30.2 °F 100% 29.53 in 1.9 mi South 3.5 mph - N/A   Overcast
6:00 AM 30.2 °F 25.4 °F 30.2 °F 100% 29.53 in 1.2 mi South 4.6 mph - N/A   Overcast
6:30 AM 30.2 °F 26.7 °F 30.2 °F 100% 29.53 in 1.2 mi SSE 3.5 mph - N/A   Mist
7:00 AM 30 °F - 30 °F 100% 29.57 in 1 mi SSE 3.5 mph - -   Mist
7:00 AM 30.2 °F 26.7 °F 30.2 °F 100% 29.56 in 1.2 mi SSE 3.5 mph - N/A   Mist
7:30 AM 30.2 °F 26.7 °F 30.2 °F 100% 29.56 in 1.2 mi SSE 3.5 mph - N/A   Overcast
8:00 AM 30.2 °F 26.7 °F 30.2 °F 100% 29.56 in 1.2 mi ESE 3.5 mph - N/A   Mostly Cloudy
8:30 AM 30.2 °F 26.7 °F 30.2 °F 100% 29.59 in 1.2 mi SE 3.5 mph - N/A   Mostly Cloudy
9:00 AM 30.2 °F - 30.2 °F 100% 29.59 in 1.2 mi ESE 2.3 mph - N/A   Mostly Cloudy
9:30 AM 28.4 °F - 28.4 °F 100% 29.59 in 0.1 mi Calm Calm - N/A Fog Fog
10:30 AM 28.4 °F 22.2 °F 28.4 °F 100% 29.65 in 0.1 mi NE 5.8 mph - N/A Fog Fog
11:00 AM 30.2 °F 25.4 °F 30.2 °F 100% 29.65 in 0.3 mi NE 4.6 mph - N/A Fog , Snow Light Snow
11:30 AM 32.0 °F 26.4 °F 30.2 °F 93% 29.68 in 1.2 mi NNE 5.8 mph - N/A Snow Light Snow
12:00 PM 32.0 °F 26.4 °F 32.0 °F 100% 29.68 in 1.9 mi North 5.8 mph - N/A Snow Light Snow
12:30 PM 32.0 °F 22.5 °F 32.0 °F 100% 29.68 in 1.9 mi North 12.7 mph - N/A Snow Light Snow
1:00 PM 31 °F - 31 °F 100% 29.73 in 2 mi North 12.7 mph - - Snow Light Snow
1:00 PM 32.0 °F 22.1 °F 32.0 °F 100% 29.71 in 2.5 mi North 13.8 mph - N/A   Mostly Cloudy
1:30 PM 30.2 °F 18.9 °F 30.2 °F 100% 29.71 in 3.7 mi North 16.1 mph - N/A   Mostly Cloudy
2:00 PM 30.2 °F 19.8 °F 30.2 °F 100% 29.74 in 5.0 mi North 13.8 mph - N/A   Mostly Cloudy
2:30 PM 30.2 °F 20.2 °F 30.2 °F 100% 29.74 in 5.6 mi North 12.7 mph - N/A   Mostly Cloudy
3:00 PM 32.0 °F 22.1 °F 30.2 °F 93% 29.74 in 5.6 mi North 13.8 mph - N/A   Partly Cloudy
3:30 PM 32.0 °F 23.6 °F 30.2 °F 93% 29.74 in 5.6 mi North 10.4 mph - N/A   Partly Cloudy
4:00 PM 32.0 °F 24.2 °F 30.2 °F 93% 29.74 in 6.2 mi North 9.2 mph - N/A   Partly Cloudy
4:30 PM 30.2 °F 23.4 °F 28.4 °F 93% 29.77 in - North 6.9 mph - N/A   Clear
5:00 PM 30.2 °F 24.3 °F 28.4 °F 93% 29.77 in - NNW 5.8 mph - N/A   Clear
5:30 PM 28.4 °F 22.2 °F 28.4 °F 100% 29.77 in 5.0 mi NNW 5.8 mph - N/A   Partly Cloudy
6:00 PM 26.6 °F 19.1 °F 24.8 °F 93% 29.77 in 4.3 mi NW 6.9 mph - N/A   Partly Cloudy
7:00 PM 23 °F - 22 °F 95% 29.82 in 2 mi WNW 5.8 mph - -   Mist
7:00 PM 23.0 °F 15.8 °F 23.0 °F 100% 29.80 in 1.9 mi WNW 5.8 mph - N/A   Partly Cloudy
7:30 PM 23.0 °F 13.9 °F 21.2 °F 93% 29.80 in 1.9 mi WNW 8.1 mph - N/A   Mist
8:00 PM 23.0 °F 14.7 °F 23.0 °F 100% 29.80 in 1.9 mi NW 6.9 mph - N/A   Mist
8:30 PM 26.6 °F 18.2 °F 26.6 °F 100% 29.80 in 3.7 mi NNW 8.1 mph - N/A   Unknown
9:00 PM 26.6 °F 17.5 °F 24.8 °F 93% 29.83 in - North 9.2 mph - N/A   Clear
9:30 PM 26.6 °F 21.2 °F 24.8 °F 93% 29.83 in - North 4.6 mph - N/A   Clear
10:00 PM 24.8 °F 16.9 °F 23.0 °F 93% 29.83 in - North 6.9 mph - N/A   Clear
10:30 PM 24.8 °F 16.9 °F 23.0 °F 93% 29.83 in 5.6 mi North 6.9 mph - N/A   Partly Cloudy
11:00 PM 23.0 °F 15.8 °F 21.2 °F 93% 29.83 in 4.3 mi NNW 5.8 mph - N/A   Unknown
11:30 PM 21.2 °F 14.9 °F 19.4 °F 93% 29.83 in 3.7 mi NNW 4.6 mph - N/A   Unknown